Showing default

COSMOS 2090, 20735

Orbit data source: Space-Track

COSMOS 2090, 20735 is a payload satellite owned by UNKS (CIS) in LEO that was launched on Wed, 08 Aug 1990 UTC via a TSIKLON-3 launch vehicle from the Plesetsk Missile And Space Complex (PKMTR). Payload-class satellites include a variety of spacecraft equipped with specific instruments for various scientific and technological missions. These include communications satellites like Starlink; space stations such as the ISS; scientific satellites like the Hubble; Earth observation satellites from companies like Planet Labs, Umbra, and HawkEye 360; GPS; miniature CubeSats for education and research; and military/defense satellites.

Loading next visibility...
Identifier
20735, 1990-070A
Orbit
LEO
Last TLE update
14 hours ago
Origin
Manufacturer
NPO PM
Mission
Defense Communications
Bus & Motor
STRELA-3, Unknown motor
Mass
225 kg wet, 225 kg dry
Launch date (UTC)
1990-08-08 (35 years ago)
Launch vehicle
TSIKLON-3
Launch site
Plesetsk Missile And Space Complex (PKMTR)
Object type
Payload
Rocket body
Debris
Shape & HBR
Cyl, 1.6 m
Radar Cross Section
1.257 m², Large (>1 m²)

Expand to show TLE details & history

TLE from 14 hours ago
0 COSMOS 2090
1 20735U 90070A   25128.61515259  .00000043  00000-0  17313-3 0  9990
2 20735  82.5669 172.2283 0012893 264.3096 211.9490 12.65350869605027
Epoch: 2025-05-08T14:45Z
Definitive object data (Epoch: 2025-05-08T14:45:49.183Z)
Latitude
62.94091°
Longitude
-110.63236°
Altitude
1,420.229 km
Speed
7.152 km/s
True Right ascension
22h 30m 01s
True Declination
62° 48' 48"
Sunlit
Object was in daylight at TLE epoch
Visualization TLE readout
Latitude
-52.0412°
Longitude
74.12857°
Altitude
1,413.918 km
Speed
7.156 km/s
Apparent Right ascension
05h 53m 19s
Apparent Declination
-73° 43' 24"
Sunlit
Object is in daylight
Visualization observer readout
Local Sidereal Time
13:11:54
Azimuth
201.336° SSW
Elevation
-43.489°
Doppler factor
1
Orbital elements
Apogee altitude
1,408.279 km
Perigee altitude
1,388.227 km
Semi-major axis
7,776.39 km
Eccentricity
0.0012893
Inclination
82.5669°
RAAN
172.2283°
Arg. of periapsis
264.3096°
True anomaly
211.87093°
Mean anomaly
211.949°
Eccentric anomaly
211.90995°
Mean motion
3.16502 °/min
BSTAR
0.00017313
Orbital period
113.74 mins
Loading maneuver chart data...
Loading SW <> Apogee altitude chart data...
Loading historical data...
Loading historical data...
Loading historical data...
Loading historical data...
Loading historical data...
Loading historical data...
Loading historical data...

COSMOS 2090 Visibility forecast

Observer location: undefined°, undefined°

Span
Click to sort rows by Start time (UTC) header in descending order
Start Az.
Max El. time (UTC)
Max El. Az.
Max El.
End time (UTC)
End Az.
10 mins2025-05-09 05:29:18.374Z254.708° W2025-05-09 05:34:18.374Z293.589° NW18.328°2025-05-09 05:39:18.374Z333.834° NNW
13 mins2025-05-09 13:32:18.374Z13.602° NNE2025-05-09 13:38:18.374Z67.278° ENE28.788°2025-05-09 13:45:18.374Z130.959° SE
14 mins2025-05-09 15:27:18.374Z337.938° N2025-05-09 15:33:18.374Z276.301° WNW37.518°2025-05-09 15:41:18.374Z198.968° SSW
12 mins2025-05-10 02:19:18.374Z137.494° SSE2025-05-10 02:25:18.374Z81.459° E27.975°2025-05-10 02:31:18.374Z29.499° NE
14 mins2025-05-10 04:13:18.374Z213.916° SW2025-05-10 04:19:18.374Z281.183° WNW38.05°2025-05-10 04:27:18.374Z358.035° N
|